Location: Ambrosina
(19.9365°S, 43.9833°W)
Time: 01:00:18
(UTC+00:00)

H-2A R/B - Pass Details

Date: 11 May 2021
Orbit: 734 x 836 km, 98.2° (Epoch: 20 June)

Event Time Altitude Azimuth Distance (km) Brightness Sun altitude
Exits shadow 21:58:56 35° 148° (SSE) 1,200 2.6 -21.2°
Maximum altitude 22:00:58 65° 79° (E) 822 1.8 -21.7°
Drops below altitude 10° 22:05:50 10° 357° (N) 2,235 4.6 -22.8°
Sets 22:08:05 0° 354° (N) 3,146 5.4 -23.3°
